UAL1124 KORD-KFLL

Flight info

Callsign UAL1124
Flight time 2h 25m
Altitude 35000
Route DCT DENNT DCT DARCY DCT DREGS DCT DUMGE DCT SCOTO DCT SWAPP Q79 ZPLEN TEEKY4
Aircraft B739/M-SDE2E3FGHIRWXY/LB1

Departure

Time 2026-05-04 23:18
Airport Chicago O'Hare International Airport (KORD)

Arrival

Time 2026-05-05 01:44
Airport Fort Lauderdale Hollywood International Airport (KFLL)
Time Latitude Longitude Altitude Speed Heading
2026-05-04 22:21 41.98040 -87.90705 668 ft 0 kts 109°
2026-05-04 23:00 41.98046 -87.90730 676 ft 4 kts 94°
2026-05-04 23:01 41.98042 -87.90763 667 ft 4 kts 62°
2026-05-04 23:01 41.98036 -87.90778 666 ft 0 kts 53°
2026-05-04 23:05 41.98054 -87.90771 665 ft 6 kts 357°
2026-05-04 23:05 41.98116 -87.90778 668 ft 11 kts 354°
2026-05-04 23:05 41.98196 -87.90789 668 ft 9 kts 354°
2026-05-04 23:06 41.98265 -87.90784 668 ft 10 kts 32°
2026-05-04 23:06 41.98288 -87.90690 667 ft 13 kts 87°
2026-05-04 23:06 41.98288 -87.90553 667 ft 17 kts 89°
2026-05-04 23:06 41.98288 -87.90382 668 ft 19 kts 90°
2026-05-04 23:07 41.98287 -87.90190 668 ft 22 kts 90°
2026-05-04 23:07 41.98288 -87.90022 668 ft 22 kts 89°
2026-05-04 23:07 41.98288 -87.89816 669 ft 22 kts 90°
2026-05-04 23:07 41.98288 -87.89629 669 ft 19 kts 92°
2026-05-04 23:08 41.98220 -87.89485 668 ft 18 kts 135°
2026-05-04 23:08 41.98132 -87.89367 668 ft 17 kts 135°
2026-05-04 23:08 41.98044 -87.89353 668 ft 15 kts 231°
2026-05-04 23:08 41.97982 -87.89456 668 ft 14 kts 229°
2026-05-04 23:09 41.97906 -87.89523 668 ft 13 kts 190°
2026-05-04 23:09 41.97817 -87.89526 668 ft 13 kts 180°
2026-05-04 23:09 41.97730 -87.89525 668 ft 12 kts 180°
2026-05-04 23:09 41.97646 -87.89525 668 ft 12 kts 180°
2026-05-04 23:10 41.97559 -87.89524 668 ft 13 kts 180°
2026-05-04 23:10 41.97469 -87.89524 668 ft 13 kts 182°
2026-05-04 23:10 41.97379 -87.89555 668 ft 15 kts 206°
2026-05-04 23:10 41.97300 -87.89606 668 ft 12 kts 172°
2026-05-04 23:11 41.97224 -87.89536 667 ft 15 kts 140°
2026-05-04 23:11 41.97194 -87.89399 668 ft 18 kts 90°
2026-05-04 23:11 41.97195 -87.89218 668 ft 20 kts 90°
2026-05-04 23:11 41.97195 -87.89029 668 ft 20 kts 90°
2026-05-04 23:12 41.97195 -87.88847 668 ft 19 kts 90°
2026-05-04 23:12 41.97195 -87.88670 668 ft 19 kts 90°
2026-05-04 23:12 41.97196 -87.88499 668 ft 18 kts 90°
2026-05-04 23:12 41.97196 -87.88336 668 ft 17 kts 89°
2026-05-04 23:13 41.97196 -87.88180 668 ft 17 kts 90°
2026-05-04 23:13 41.97188 -87.88059 667 ft 10 kts 121°
2026-05-04 23:13 41.97123 -87.88035 668 ft 10 kts 180°
2026-05-04 23:13 41.97093 -87.88035 669 ft 0 kts 180°
2026-05-04 23:16 41.97075 -87.88035 669 ft 6 kts 180°
2026-05-04 23:16 41.97008 -87.88024 670 ft 11 kts 158°
2026-05-04 23:17 41.96952 -87.88016 671 ft 7 kts 213°
2026-05-04 23:17 41.96932 -87.88047 671 ft 0 kts 224°
2026-05-04 23:17 41.96885 -87.88106 670 ft 39 kts 221°
2026-05-04 23:17 41.96473 -87.88592 669 ft 114 kts 221°
2026-05-04 23:18 41.95727 -87.89475 737 ft 164 kts 221°
2026-05-04 23:18 41.94801 -87.90392 1369 ft 170 kts 202°
2026-05-04 23:18 41.93597 -87.90487 2066 ft 183 kts 170°
2026-05-04 23:18 41.92372 -87.89920 2726 ft 197 kts 167°
2026-05-04 23:19 41.91010 -87.89213 2929 ft 221 kts 166°
2026-05-04 23:19 41.89519 -87.88440 3200 ft 239 kts 166°
2026-05-04 23:19 41.87885 -87.87628 3454 ft 259 kts 166°
2026-05-04 23:19 41.86178 -87.86802 4058 ft 266 kts 166°
2026-05-04 23:20 41.84432 -87.85997 4845 ft 264 kts 171°
2026-05-04 23:20 41.82631 -87.85429 5481 ft 268 kts 174°
2026-05-04 23:20 41.80810 -87.84921 6092 ft 274 kts 174°
2026-05-04 23:20 41.78934 -87.84390 6708 ft 279 kts 173°
2026-05-04 23:21 41.77017 -87.83825 7313 ft 284 kts 172°
2026-05-04 23:21 41.75072 -87.83232 7909 ft 290 kts 172°
2026-05-04 23:21 41.73086 -87.82610 8528 ft 294 kts 172°
2026-05-04 23:21 41.71081 -87.81972 9158 ft 299 kts 171°
2026-05-04 23:22 41.69041 -87.81316 9719 ft 304 kts 171°
2026-05-04 23:22 41.66971 -87.80647 10307 ft 309 kts 171°
2026-05-04 23:22 41.64827 -87.79954 10608 ft 324 kts 170°
2026-05-04 23:22 41.62616 -87.79236 11128 ft 331 kts 170°
2026-05-04 23:23 41.60361 -87.78501 11746 ft 334 kts 170°
2026-05-04 23:23 41.58095 -87.77761 12467 ft 336 kts 170°
2026-05-04 23:23 41.55807 -87.77016 13122 ft 340 kts 170°
2026-05-04 23:23 41.53488 -87.76262 13726 ft 344 kts 171°
2026-05-04 23:24 41.51156 -87.75503 14359 ft 346 kts 171°
2026-05-04 23:24 41.48805 -87.74739 14987 ft 349 kts 171°
2026-05-04 23:24 41.46470 -87.73982 15594 ft 352 kts 171°
2026-05-04 23:24 41.44080 -87.73209 16178 ft 355 kts 171°
2026-05-04 23:25 41.41659 -87.72534 16764 ft 355 kts 178°
2026-05-04 23:25 41.39203 -87.72392 17353 ft 353 kts 185°
2026-05-04 23:25 41.36736 -87.72427 17945 ft 356 kts 186°
2026-05-04 23:25 41.34252 -87.72482 18455 ft 358 kts 186°
2026-05-04 23:26 41.31747 -87.72527 18968 ft 361 kts 186°
2026-05-04 23:26 41.29224 -87.72556 19470 ft 364 kts 186°
2026-05-04 23:26 41.26683 -87.72574 19973 ft 367 kts 186°
2026-05-04 23:26 41.24110 -87.72586 20477 ft 370 kts 186°
2026-05-04 23:27 41.21534 -87.72597 20980 ft 373 kts 186°
2026-05-04 23:27 41.18921 -87.72510 21477 ft 378 kts 182°
2026-05-04 23:27 41.16286 -87.72211 21971 ft 382 kts 180°
2026-05-04 23:27 41.13625 -87.71835 22452 ft 386 kts 179°
2026-05-04 23:28 41.10948 -87.71439 22950 ft 388 kts 180°
2026-05-04 23:28 41.08254 -87.71044 23381 ft 391 kts 180°
2026-05-04 23:28 41.05541 -87.70656 23779 ft 394 kts 180°
2026-05-04 23:28 41.02811 -87.70274 24190 ft 396 kts 180°
2026-05-04 23:29 41.00099 -87.69902 24599 ft 397 kts 180°
2026-05-04 23:29 40.97337 -87.69528 25003 ft 400 kts 180°
2026-05-04 23:29 40.94563 -87.69155 25392 ft 402 kts 181°
2026-05-04 23:29 40.91764 -87.68780 25778 ft 405 kts 181°
2026-05-04 23:30 40.88955 -87.68403 26182 ft 406 kts 181°
2026-05-04 23:30 40.86129 -87.68025 26569 ft 408 kts 181°
2026-05-04 23:30 40.83290 -87.67646 26945 ft 411 kts 181°
2026-05-04 23:30 40.80440 -87.67266 27308 ft 413 kts 181°
2026-05-04 23:31 40.77568 -87.66883 27694 ft 415 kts 181°
2026-05-04 23:31 40.74688 -87.66499 28067 ft 417 kts 181°
2026-05-04 23:31 40.71787 -87.66112 28414 ft 420 kts 181°
2026-05-04 23:31 40.68874 -87.65724 28753 ft 422 kts 181°
2026-05-04 23:32 40.65974 -87.65338 29110 ft 424 kts 181°
2026-05-04 23:32 40.63029 -87.64947 29462 ft 426 kts 181°
2026-05-04 23:32 40.60076 -87.64554 29783 ft 428 kts 181°
2026-05-04 23:32 40.57101 -87.64160 30059 ft 430 kts 181°
2026-05-04 23:33 40.54115 -87.63763 30364 ft 431 kts 181°
2026-05-04 23:33 40.51120 -87.63366 30647 ft 433 kts 181°
2026-05-04 23:33 40.48117 -87.62969 30914 ft 435 kts 181°
2026-05-04 23:33 40.45095 -87.62569 31171 ft 437 kts 181°
2026-05-04 23:34 40.42102 -87.62173 31443 ft 438 kts 181°
2026-05-04 23:34 40.39058 -87.61771 31706 ft 440 kts 181°
2026-05-04 23:34 40.36008 -87.61369 31939 ft 442 kts 181°
2026-05-04 23:34 40.32938 -87.60844 32157 ft 449 kts 174°
2026-05-04 23:35 40.29896 -87.59733 32405 ft 458 kts 165°
2026-05-04 23:35 40.26957 -87.58005 32625 ft 464 kts 159°
2026-05-04 23:35 40.24055 -87.56115 32842 ft 467 kts 159°
2026-05-04 23:35 40.21153 -87.54193 33054 ft 468 kts 159°
2026-05-04 23:36 40.18269 -87.52298 33288 ft 469 kts 159°
2026-05-04 23:36 40.15340 -87.50403 33500 ft 471 kts 159°
2026-05-04 23:36 40.12383 -87.48515 33662 ft 473 kts 160°
2026-05-04 23:36 40.09415 -87.46635 33808 ft 475 kts 160°
2026-05-04 23:37 40.07442 -87.45388 33924 ft 476 kts 160°
2026-05-04 23:37 40.04452 -87.43499 34095 ft 477 kts 160°
2026-05-04 23:37 40.00484 -87.40992 34319 ft 479 kts 159°
2026-05-04 23:37 39.97479 -87.39087 34465 ft 481 kts 159°
2026-05-04 23:38 39.95491 -87.37787 34575 ft 482 kts 158°
2026-05-04 23:38 39.92498 -87.35782 34703 ft 483 kts 158°
2026-05-04 23:38 39.86510 -87.31718 34719 ft 485 kts 158°
2026-05-04 23:39 39.80524 -87.27672 34718 ft 483 kts 158°
2026-05-04 23:39 39.74592 -87.23695 34720 ft 481 kts 158°
2026-05-04 23:40 39.68642 -87.19724 34724 ft 480 kts 158°
2026-05-04 23:40 39.62699 -87.15766 34727 ft 480 kts 158°
2026-05-04 23:41 39.56755 -87.11814 34729 ft 480 kts 158°
2026-05-04 23:41 39.50840 -87.07889 34728 ft 481 kts 158°
2026-05-04 23:42 39.44883 -87.03943 34733 ft 481 kts 158°
2026-05-04 23:42 39.38910 -86.99993 34733 ft 482 kts 158°
2026-05-04 23:43 39.32936 -86.96050 34738 ft 483 kts 158°
2026-05-04 23:43 39.26938 -86.92099 34749 ft 483 kts 158°
2026-05-04 23:44 39.20947 -86.88158 34760 ft 483 kts 158°
2026-05-04 23:44 39.14963 -86.84217 34766 ft 483 kts 157°
2026-05-04 23:45 39.09021 -86.80189 34776 ft 482 kts 156°
2026-05-04 23:45 39.03109 -86.76149 34771 ft 481 kts 156°
2026-05-04 23:46 38.97209 -86.72135 34772 ft 479 kts 156°
2026-05-04 23:46 38.91318 -86.68146 34771 ft 478 kts 157°
2026-05-04 23:47 38.85435 -86.64176 34776 ft 477 kts 157°
2026-05-04 23:47 38.79572 -86.60226 34774 ft 476 kts 157°
2026-05-04 23:48 38.73714 -86.56286 34772 ft 475 kts 156°
2026-05-04 23:48 38.67862 -86.52358 34771 ft 475 kts 156°
2026-05-04 23:49 38.62009 -86.48436 34789 ft 474 kts 156°
2026-05-04 23:49 38.56167 -86.44529 34786 ft 474 kts 156°
2026-05-04 23:50 38.50328 -86.40631 34787 ft 473 kts 156°
2026-05-04 23:50 38.44491 -86.36741 34794 ft 473 kts 156°
2026-05-04 23:51 38.38652 -86.32857 34805 ft 473 kts 156°
2026-05-04 23:51 38.32815 -86.28981 34805 ft 473 kts 156°
2026-05-04 23:52 38.26974 -86.25111 34818 ft 473 kts 156°
2026-05-04 23:52 38.21138 -86.21250 34827 ft 473 kts 156°
2026-05-04 23:53 38.15296 -86.17392 34830 ft 473 kts 156°
2026-05-04 23:53 38.09454 -86.13541 34834 ft 473 kts 156°
2026-05-04 23:54 38.03603 -86.09692 34838 ft 473 kts 156°
2026-05-04 23:54 37.97758 -86.05853 34844 ft 474 kts 156°
2026-05-04 23:55 37.91892 -86.02008 34843 ft 474 kts 156°
2026-05-04 23:56 37.83092 -85.96252 34838 ft 475 kts 156°
2026-05-04 23:56 37.77216 -85.92417 34848 ft 475 kts 156°
2026-05-04 23:57 37.71333 -85.88585 34851 ft 475 kts 156°
2026-05-04 23:57 37.65454 -85.84762 34848 ft 476 kts 156°
2026-05-04 23:58 37.59567 -85.80941 34853 ft 476 kts 156°
2026-05-04 23:58 37.53676 -85.77123 34853 ft 476 kts 157°
2026-05-04 23:59 37.47788 -85.73315 34861 ft 476 kts 157°
2026-05-04 23:59 37.41905 -85.69517 34876 ft 475 kts 157°
2026-05-05 00:00 37.36021 -85.65724 34890 ft 475 kts 157°
2026-05-05 00:00 37.30136 -85.61938 34900 ft 475 kts 157°
2026-05-05 00:01 37.24257 -85.58162 34898 ft 474 kts 157°
2026-05-05 00:01 37.18387 -85.54399 34904 ft 474 kts 157°
2026-05-05 00:02 37.12516 -85.50642 34912 ft 473 kts 157°
2026-05-05 00:02 37.06653 -85.46896 34897 ft 473 kts 157°
2026-05-05 00:03 37.00791 -85.43158 34896 ft 472 kts 158°
2026-05-05 00:03 36.94936 -85.39430 34905 ft 472 kts 158°
2026-05-05 00:04 36.89081 -85.35710 34895 ft 472 kts 158°
2026-05-05 00:04 36.83279 -85.32028 34921 ft 471 kts 158°
2026-05-05 00:05 36.77434 -85.28326 34914 ft 471 kts 158°
2026-05-05 00:05 36.71588 -85.24629 34919 ft 471 kts 158°
2026-05-05 00:06 36.65745 -85.20940 34922 ft 471 kts 158°
2026-05-05 00:06 36.59784 -85.17680 34911 ft 463 kts 170°
2026-05-05 00:07 36.53530 -85.16026 34926 ft 459 kts 174°
2026-05-05 00:07 36.47261 -85.14494 34920 ft 459 kts 174°
2026-05-05 00:08 36.41000 -85.12917 34938 ft 459 kts 174°
2026-05-05 00:08 36.34745 -85.11309 34940 ft 459 kts 173°
2026-05-05 00:09 36.28479 -85.09691 34945 ft 459 kts 173°
2026-05-05 00:09 36.22225 -85.08079 34961 ft 459 kts 173°
2026-05-05 00:10 36.15967 -85.06470 34975 ft 459 kts 173°
2026-05-05 00:10 36.09712 -85.04866 34983 ft 459 kts 173°
2026-05-05 00:11 36.03457 -85.03264 34995 ft 459 kts 173°
2026-05-05 00:11 35.97204 -85.01665 34999 ft 459 kts 173°
2026-05-05 00:12 35.90949 -85.00068 34997 ft 459 kts 173°
2026-05-05 00:12 35.84696 -84.98474 34990 ft 459 kts 173°
2026-05-05 00:13 35.78445 -84.96884 34983 ft 459 kts 173°
2026-05-05 00:13 35.72185 -84.95293 34975 ft 459 kts 173°
2026-05-05 00:14 35.65933 -84.93706 34965 ft 459 kts 173°
2026-05-05 00:14 35.59674 -84.92121 34956 ft 459 kts 173°
2026-05-05 00:15 35.53409 -84.90535 34975 ft 460 kts 173°
2026-05-05 00:15 35.47140 -84.88947 34971 ft 460 kts 173°
2026-05-05 00:16 35.40871 -84.87360 34959 ft 461 kts 173°
2026-05-05 00:16 35.34591 -84.85774 34971 ft 461 kts 173°
2026-05-05 00:17 35.28310 -84.84189 34971 ft 460 kts 173°
2026-05-05 00:17 35.22035 -84.82609 34970 ft 460 kts 173°
2026-05-05 00:18 35.15757 -84.81031 34973 ft 460 kts 173°
2026-05-05 00:18 35.09491 -84.79458 34972 ft 460 kts 173°
2026-05-05 00:19 35.03225 -84.77888 34970 ft 460 kts 173°
2026-05-05 00:19 34.96951 -84.76318 34979 ft 460 kts 173°
2026-05-05 00:20 34.90673 -84.74750 34995 ft 461 kts 173°
2026-05-05 00:20 34.84389 -84.73183 35004 ft 461 kts 173°
2026-05-05 00:21 34.78140 -84.71627 35006 ft 462 kts 173°
2026-05-05 00:21 34.72864 -84.70315 35003 ft 462 kts 173°
2026-05-05 00:22 34.66558 -84.68748 35000 ft 463 kts 173°
2026-05-05 00:22 34.59222 -84.66929 35003 ft 463 kts 173°
2026-05-05 00:23 34.53930 -84.65589 34989 ft 464 kts 173°
2026-05-05 00:23 34.47622 -84.63928 35019 ft 464 kts 173°
2026-05-05 00:24 34.41308 -84.62264 35027 ft 465 kts 173°
2026-05-05 00:24 34.34986 -84.60610 35035 ft 465 kts 173°
2026-05-05 00:25 34.28657 -84.58961 35034 ft 466 kts 173°
2026-05-05 00:25 34.22319 -84.57313 35034 ft 466 kts 173°
2026-05-05 00:26 34.15968 -84.55663 35027 ft 467 kts 173°
2026-05-05 00:26 34.09608 -84.54013 35034 ft 468 kts 173°
2026-05-05 00:27 34.03239 -84.52363 35034 ft 469 kts 173°
2026-05-05 00:27 33.96841 -84.50870 35007 ft 468 kts 175°
2026-05-05 00:28 33.90427 -84.49509 35005 ft 469 kts 175°
2026-05-05 00:28 33.84003 -84.48124 35028 ft 470 kts 175°
2026-05-05 00:29 33.77568 -84.46714 35022 ft 471 kts 175°
2026-05-05 00:29 33.71117 -84.45298 35035 ft 471 kts 175°
2026-05-05 00:30 33.64669 -84.43887 35035 ft 472 kts 175°
2026-05-05 00:30 33.58268 -84.41847 35034 ft 479 kts 167°
2026-05-05 00:31 33.51953 -84.39235 35032 ft 481 kts 166°
2026-05-05 00:31 33.45627 -84.36601 35064 ft 482 kts 167°
2026-05-05 00:32 33.39270 -84.34020 35061 ft 482 kts 167°
2026-05-05 00:32 33.32899 -84.31471 35062 ft 483 kts 167°
2026-05-05 00:33 33.26513 -84.28928 35057 ft 485 kts 167°
2026-05-05 00:33 33.20103 -84.26376 35047 ft 486 kts 167°
2026-05-05 00:34 33.13682 -84.23821 35042 ft 487 kts 167°
2026-05-05 00:34 33.07252 -84.21266 35035 ft 488 kts 167°
2026-05-05 00:35 33.00805 -84.18709 35035 ft 489 kts 168°
2026-05-05 00:35 32.94346 -84.16151 35033 ft 489 kts 168°
2026-05-05 00:36 32.87876 -84.13592 35027 ft 490 kts 168°
2026-05-05 00:36 32.81359 -84.11018 35034 ft 491 kts 168°
2026-05-05 00:37 32.74915 -84.08478 35029 ft 492 kts 168°
2026-05-05 00:37 32.68373 -84.05903 35035 ft 492 kts 168°
2026-05-05 00:38 32.61908 -84.03362 35042 ft 493 kts 168°
2026-05-05 00:38 32.55378 -84.00800 35044 ft 494 kts 168°
2026-05-05 00:39 32.48847 -83.98241 35051 ft 495 kts 168°
2026-05-05 00:39 32.42295 -83.95678 35049 ft 496 kts 168°
2026-05-05 00:40 32.35741 -83.93117 35051 ft 497 kts 168°
2026-05-05 00:40 32.29172 -83.90555 35050 ft 498 kts 168°
2026-05-05 00:41 32.22577 -83.87987 35037 ft 499 kts 169°
2026-05-05 00:41 32.15980 -83.85421 35038 ft 499 kts 169°
2026-05-05 00:42 32.09370 -83.82855 35043 ft 500 kts 169°
2026-05-05 00:42 32.02756 -83.80291 35039 ft 501 kts 169°
2026-05-05 00:43 31.96123 -83.77723 35046 ft 501 kts 169°
2026-05-05 00:43 31.89493 -83.75161 35051 ft 502 kts 169°
2026-05-05 00:44 31.82849 -83.72596 35044 ft 503 kts 169°
2026-05-05 00:44 31.76201 -83.70034 35048 ft 503 kts 169°
2026-05-05 00:45 31.69543 -83.67472 35046 ft 504 kts 169°
2026-05-05 00:45 31.62913 -83.64923 35049 ft 504 kts 169°
2026-05-05 00:46 31.56232 -83.62355 35049 ft 505 kts 169°
2026-05-05 00:46 31.49550 -83.59790 35055 ft 505 kts 169°
2026-05-05 00:47 31.42870 -83.57229 35058 ft 505 kts 169°
2026-05-05 00:47 31.36190 -83.54672 35056 ft 505 kts 169°
2026-05-05 00:48 31.29507 -83.52118 35054 ft 505 kts 169°
2026-05-05 00:48 31.22826 -83.49569 35049 ft 505 kts 169°
2026-05-05 00:49 31.16143 -83.47023 35044 ft 505 kts 169°
2026-05-05 00:49 31.09496 -83.44494 35031 ft 505 kts 169°
2026-05-05 00:50 31.02812 -83.41955 35032 ft 505 kts 169°
2026-05-05 00:50 30.96134 -83.39422 35034 ft 505 kts 169°
2026-05-05 00:51 30.89445 -83.36888 35040 ft 505 kts 169°
2026-05-05 00:51 30.82761 -83.34360 35037 ft 505 kts 169°
2026-05-05 00:52 30.76083 -83.31837 35045 ft 505 kts 169°
2026-05-05 00:52 30.69420 -83.29196 35035 ft 510 kts 163°
2026-05-05 00:53 30.62946 -83.25771 35044 ft 513 kts 161°
2026-05-05 00:53 30.56517 -83.22185 35041 ft 513 kts 161°
2026-05-05 00:54 30.50066 -83.18646 35040 ft 513 kts 161°
2026-05-05 00:54 30.43598 -83.15162 35047 ft 512 kts 161°
2026-05-05 00:55 30.37128 -83.11701 35041 ft 512 kts 161°
2026-05-05 00:55 30.30651 -83.08240 35043 ft 512 kts 161°
2026-05-05 00:56 30.24181 -83.04784 35038 ft 512 kts 161°
2026-05-05 00:56 30.17716 -83.01333 35037 ft 512 kts 161°
2026-05-05 00:57 30.11249 -82.97888 35036 ft 511 kts 161°
2026-05-05 00:57 30.04786 -82.94449 35032 ft 511 kts 161°
2026-05-05 00:58 29.98328 -82.91017 35031 ft 511 kts 161°
2026-05-05 00:58 29.91888 -82.87601 35028 ft 511 kts 161°
2026-05-05 00:59 29.85419 -82.84174 35029 ft 511 kts 161°
2026-05-05 00:59 29.78958 -82.80756 35030 ft 511 kts 161°
2026-05-05 01:00 29.72497 -82.77343 35032 ft 511 kts 161°
2026-05-05 01:00 29.66032 -82.73933 35037 ft 511 kts 161°
2026-05-05 01:01 29.59563 -82.70525 35033 ft 512 kts 161°
2026-05-05 01:01 29.53089 -82.67119 35035 ft 512 kts 161°
2026-05-05 01:02 29.47694 -82.64285 35042 ft 513 kts 161°
2026-05-05 01:02 29.41197 -82.60876 35031 ft 514 kts 161°
2026-05-05 01:03 29.34697 -82.57469 35032 ft 514 kts 161°
2026-05-05 01:03 29.28199 -82.54070 35040 ft 513 kts 162°
2026-05-05 01:03 29.24862 -82.52795 35032 ft 498 kts 178°
2026-05-05 01:04 29.21475 -82.52502 35060 ft 483 kts 188°
2026-05-05 01:04 29.11392 -82.52638 35037 ft 483 kts 189°
2026-05-05 01:05 29.04672 -82.52709 35045 ft 483 kts 189°
2026-05-05 01:05 28.97931 -82.52722 35057 ft 484 kts 188°
2026-05-05 01:06 28.91233 -82.52714 35059 ft 485 kts 188°
2026-05-05 01:06 28.84433 -82.52706 35060 ft 486 kts 188°
2026-05-05 01:07 28.77661 -82.52702 35061 ft 487 kts 188°
2026-05-05 01:07 28.70869 -82.52698 35048 ft 488 kts 188°
2026-05-05 01:08 28.64068 -82.52695 35045 ft 489 kts 188°
2026-05-05 01:08 28.57260 -82.52691 35051 ft 490 kts 188°
2026-05-05 01:09 28.50436 -82.52687 35056 ft 490 kts 188°
2026-05-05 01:09 28.43609 -82.52684 35058 ft 491 kts 188°
2026-05-05 01:10 28.37015 -82.52680 35049 ft 491 kts 188°
2026-05-05 01:10 28.30176 -82.52676 35045 ft 491 kts 188°
2026-05-05 01:11 28.23351 -82.52673 35034 ft 491 kts 188°
2026-05-05 01:11 28.16563 -82.52669 35031 ft 491 kts 188°
2026-05-05 01:12 28.09693 -82.52665 35038 ft 490 kts 188°
2026-05-05 01:12 28.02919 -82.52662 35041 ft 490 kts 188°
2026-05-05 01:13 27.96047 -82.51566 35068 ft 507 kts 169°
2026-05-05 01:13 27.89315 -82.49060 35029 ft 510 kts 167°
2026-05-05 01:14 27.82589 -82.46530 35024 ft 509 kts 168°
2026-05-05 01:14 27.75840 -82.44100 35024 ft 509 kts 169°
2026-05-05 01:15 27.69077 -82.41716 35023 ft 509 kts 169°
2026-05-05 01:15 27.62305 -82.39331 35026 ft 509 kts 169°
2026-05-05 01:16 27.55541 -82.36945 35025 ft 510 kts 169°
2026-05-05 01:16 27.48777 -82.34559 35028 ft 510 kts 169°
2026-05-05 01:17 27.42001 -82.32173 35021 ft 510 kts 169°
2026-05-05 01:17 27.35356 -82.29458 35023 ft 518 kts 158°
2026-05-05 01:18 27.29077 -82.25428 35019 ft 521 kts 154°
2026-05-05 01:18 27.22838 -82.21249 35018 ft 521 kts 154°
2026-05-05 01:19 27.16554 -82.17202 35019 ft 521 kts 155°
2026-05-05 01:19 27.13374 -82.15194 34451 ft 530 kts 155°
2026-05-05 01:19 27.10136 -82.13158 33666 ft 533 kts 155°
2026-05-05 01:20 27.06906 -82.11121 32802 ft 533 kts 155°
2026-05-05 01:20 27.03673 -82.09077 31930 ft 533 kts 155°
2026-05-05 01:20 27.00440 -82.07033 31267 ft 529 kts 155°
2026-05-05 01:20 26.97296 -82.05030 31125 ft 514 kts 153°
2026-05-05 01:21 26.94449 -82.02649 30651 ft 513 kts 137°
2026-05-05 01:21 26.91990 -81.99754 30104 ft 512 kts 134°
2026-05-05 01:21 26.89599 -81.96786 29400 ft 512 kts 134°
2026-05-05 01:21 26.87218 -81.93833 28797 ft 509 kts 135°
2026-05-05 01:22 26.84827 -81.90932 28213 ft 505 kts 135°
2026-05-05 01:22 26.82431 -81.88083 27629 ft 500 kts 136°
2026-05-05 01:22 26.80044 -81.85274 27066 ft 496 kts 136°
2026-05-05 01:22 26.77679 -81.82496 26496 ft 490 kts 136°
2026-05-05 01:23 26.75336 -81.79751 25949 ft 485 kts 137°
2026-05-05 01:23 26.72981 -81.77010 25405 ft 480 kts 137°
2026-05-05 01:23 26.70706 -81.74370 24871 ft 475 kts 137°
2026-05-05 01:23 26.68423 -81.71720 24330 ft 471 kts 137°
2026-05-05 01:24 26.66160 -81.69092 23795 ft 467 kts 137°
2026-05-05 01:24 26.63913 -81.66482 23199 ft 464 kts 137°
2026-05-05 01:24 26.61757 -81.63821 22631 ft 460 kts 133°
2026-05-05 01:24 26.59800 -81.61008 22105 ft 456 kts 129°
2026-05-05 01:25 26.57948 -81.58157 21573 ft 451 kts 128°
2026-05-05 01:25 26.56130 -81.55324 21062 ft 446 kts 129°
2026-05-05 01:25 26.54321 -81.52540 20558 ft 440 kts 129°
2026-05-05 01:25 26.52513 -81.49804 20065 ft 436 kts 130°
2026-05-05 01:26 26.50707 -81.47107 19573 ft 431 kts 130°
2026-05-05 01:26 26.48913 -81.44445 19080 ft 427 kts 130°
2026-05-05 01:26 26.47133 -81.41813 18582 ft 424 kts 130°
2026-05-05 01:26 26.45363 -81.39195 18061 ft 421 kts 130°
2026-05-05 01:27 26.43611 -81.36603 17540 ft 416 kts 130°
2026-05-05 01:27 26.41878 -81.34039 17055 ft 411 kts 130°
2026-05-05 01:27 26.40142 -81.31525 16582 ft 406 kts 132°
2026-05-05 01:27 26.38355 -81.29117 16122 ft 401 kts 133°
2026-05-05 01:28 26.36559 -81.26762 15668 ft 396 kts 134°
2026-05-05 01:28 26.34783 -81.24431 15227 ft 392 kts 133°
2026-05-05 01:28 26.33033 -81.22116 14779 ft 389 kts 133°
2026-05-05 01:28 26.31307 -81.19816 14345 ft 385 kts 133°
2026-05-05 01:29 26.29598 -81.17535 13896 ft 382 kts 132°
2026-05-05 01:29 26.27899 -81.15272 13412 ft 379 kts 133°
2026-05-05 01:29 26.26212 -81.13047 12956 ft 374 kts 133°
2026-05-05 01:29 26.24539 -81.10848 12525 ft 370 kts 133°
2026-05-05 01:30 26.22882 -81.08672 12097 ft 366 kts 133°
2026-05-05 01:30 26.21247 -81.06524 11685 ft 362 kts 133°
2026-05-05 01:30 26.19630 -81.04399 11272 ft 358 kts 133°
2026-05-05 01:30 26.18031 -81.02297 10858 ft 354 kts 133°
2026-05-05 01:31 26.16443 -81.00212 10435 ft 351 kts 133°
2026-05-05 01:31 26.14977 -80.98042 10029 ft 351 kts 120°
2026-05-05 01:31 26.14228 -80.95500 9921 ft 338 kts 103°
2026-05-05 01:31 26.13817 -80.93012 9863 ft 317 kts 102°
2026-05-05 01:32 26.13459 -80.90663 9711 ft 300 kts 101°
2026-05-05 01:32 26.13110 -80.88402 9359 ft 294 kts 102°
2026-05-05 01:32 26.12753 -80.86172 8883 ft 291 kts 102°
2026-05-05 01:32 26.12392 -80.83971 8414 ft 288 kts 102°
2026-05-05 01:33 26.12030 -80.81791 7973 ft 284 kts 102°
2026-05-05 01:33 26.11672 -80.79641 7532 ft 281 kts 101°
2026-05-05 01:33 26.11350 -80.77506 7096 ft 278 kts 99°
2026-05-05 01:33 26.11060 -80.75394 6744 ft 272 kts 99°
2026-05-05 01:34 26.10781 -80.73335 6560 ft 268 kts 99°
2026-05-05 01:34 26.10499 -80.71265 6422 ft 273 kts 99°
2026-05-05 01:34 26.10214 -80.69190 6255 ft 276 kts 99°
2026-05-05 01:34 26.09923 -80.67074 6083 ft 277 kts 99°
2026-05-05 01:35 26.09629 -80.64952 5927 ft 276 kts 99°
2026-05-05 01:35 26.09337 -80.62843 5774 ft 275 kts 99°
2026-05-05 01:35 26.09046 -80.60750 5614 ft 273 kts 99°
2026-05-05 01:35 26.08758 -80.58676 5462 ft 269 kts 99°
2026-05-05 01:36 26.08472 -80.56629 5302 ft 265 kts 99°
2026-05-05 01:36 26.08192 -80.54624 5154 ft 261 kts 99°
2026-05-05 01:36 26.07914 -80.52636 5015 ft 259 kts 99°
2026-05-05 01:36 26.07775 -80.50664 4864 ft 259 kts 91°
2026-05-05 01:37 26.07773 -80.49987 4816 ft 258 kts 90°
2026-05-05 01:37 26.07783 -80.48879 4730 ft 258 kts 89°
2026-05-05 01:37 26.07807 -80.46892 4561 ft 257 kts 90°
2026-05-05 01:37 26.07818 -80.44943 4483 ft 244 kts 90°
2026-05-05 01:38 26.07818 -80.43120 4376 ft 228 kts 90°
2026-05-05 01:38 26.07814 -80.41406 4247 ft 214 kts 90°
2026-05-05 01:38 26.07808 -80.39809 4134 ft 199 kts 91°
2026-05-05 01:38 26.07802 -80.38292 3813 ft 193 kts 90°
2026-05-05 01:39 26.07795 -80.36829 3579 ft 186 kts 90°
2026-05-05 01:39 26.07789 -80.35422 3298 ft 177 kts 90°
2026-05-05 01:39 26.07789 -80.34096 3051 ft 166 kts 89°
2026-05-05 01:39 26.07793 -80.32832 2829 ft 161 kts 90°
2026-05-05 01:40 26.07790 -80.31616 2621 ft 153 kts 89°
2026-05-05 01:40 26.07783 -80.30453 2440 ft 151 kts 90°
2026-05-05 01:40 26.07775 -80.29276 2242 ft 154 kts 90°
2026-05-05 01:40 26.07767 -80.28092 2037 ft 151 kts 90°
2026-05-05 01:41 26.07759 -80.26940 1837 ft 146 kts 90°
2026-05-05 01:41 26.07751 -80.25803 1645 ft 149 kts 89°
2026-05-05 01:41 26.07744 -80.24648 1441 ft 149 kts 89°
2026-05-05 01:41 26.07737 -80.23536 1256 ft 140 kts 89°
2026-05-05 01:42 26.07731 -80.22448 1092 ft 142 kts 89°
2026-05-05 01:42 26.07726 -80.21336 835 ft 141 kts 89°
2026-05-05 01:42 26.07707 -80.20255 687 ft 139 kts 90°
2026-05-05 01:42 26.07713 -80.19157 524 ft 142 kts 88°
2026-05-05 01:43 26.07702 -80.18434 376 ft 142 kts 89°
2026-05-05 01:43 26.07695 -80.17361 210 ft 137 kts 88°
2026-05-05 01:43 26.07693 -80.16295 37 ft 140 kts 89°
2026-05-05 01:43 26.07688 -80.15293 15 ft 111 kts 90°
2026-05-05 01:44 26.07683 -80.14659 18 ft 35 kts 90°
2026-05-05 01:44 26.07645 -80.14436 19 ft 21 kts 119°
2026-05-05 01:44 26.07572 -80.14296 16 ft 20 kts 120°
2026-05-05 01:44 26.07557 -80.14167 16 ft 15 kts 90°
2026-05-05 01:45 26.07557 -80.14052 16 ft 15 kts 90°
2026-05-05 01:45 26.07531 -80.13972 15 ft 9 kts 134°
2026-05-05 01:45 26.07475 -80.13958 15 ft 8 kts 177°
2026-05-05 01:45 26.07418 -80.13958 15 ft 8 kts 180°
2026-05-05 01:46 26.07373 -80.13958 15 ft 4 kts 181°
2026-05-05 01:46 26.07349 -80.13959 15 ft 0 kts 181°
2026-05-05 01:47 26.07348 -80.13959 15 ft 1 kts 180°
2026-05-05 01:47 26.07338 -80.13945 15 ft 2 kts 97°
2026-05-05 01:47 26.07335 -80.13927 15 ft 4 kts 106°
2026-05-05 01:47 26.07330 -80.13911 15 ft 1 kts 108°
2026-05-05 01:48 26.07329 -80.13909 15 ft 0 kts 108°